{"data":{"norad_id":66780,"epoch":"2026-09-19T23:51:45.225216Z","epoch_age_seconds":161170,"freshness":"FRESH","line1":"1 66780U 25276DU  26262.99427344  .00002072  00000+0  10101-3 0  9995","line2":"2 66780  97.4093 334.5528 0005333 144.3875 215.7716 15.19424006 44804","mean_motion":15.19424006,"eccentricity":0.0005333,"inclination_deg":97.4093,"raan_deg":334.5528,"arg_perigee_deg":144.3875,"mean_anomaly_deg":215.7716,"bstar":0.00010101,"rev_number":4480,"period_min":94.772755617499,"perigee_km":503.9081021144,"apogee_km":511.25240813872,"semimajor_km":6885.7172551266,"source":"CELESTRAK","updated_at":"2026-09-21T09:00:16.190618Z"}}